Vertical_Velocity
-3 0 -3 1 1 -3 5 3 -1 2 2 -2 3 2 -0 -3 2 -1 2 1 -3 2 2 -2 0 1 0 -0 3 2 1 -0 -1 1 -3 0 -0 -1 -2 0 -1 0 0 -0 -0
1 -1 -1 1 -1 4 -1 -3 2 -4 8 6 5 -6 2 0 1 2 3 3 2 3 2 1 2 4 -0 -1 3 1 1 -0 -3 -1 -0 -0 -1 -1 -1 -1 -2 -1 -0 0 0
-1 -1 -1 3 0 1 1 -0 -8 -9 9 7 11 -3 16 4 3 -3 3 4 1 5 3 3 -2 3 1 1 3 1 -1 -2 -2 1 1 -1 -1 -2 -2 -1 -0 0 -1 0 0
-1 1 -2 -5 0 2 -1 13 6 15 7 4 -4 31 5 8 -0 0 3 2 2 2 4 3 -2 2 3 -3 2 2 -2 -1 2 1 -1 -1 0 -2 -2 -2 -1 -0 0 -1 -1
-1 -6 -4 -4 -7 1 4 4 18 -3 1 2 9 6 8 1 3 3 4 1 2 3 4 4 -1 4 4 -2 3 1 -1 1 -0 0 -1 -1 -1 -3 -2 -1 -1 -0 0 -1 -1
-1 -4 -2 -7 15 1 -2 -5 9 4 -21 -21 -3 2 0 4 5 3 3 0 3 3 1 1 -0 4 3 -0 0 1 1 2 -0 2 -1 -1 -2 -1 -1 -0 1 0 -1 -1 0
-1 -1 8 -1 -4 14 -0 -4 3 -8 10 2 3 5 5 5 3 2 4 2 3 2 2 3 4 4 2 3 1 2 1 2 -0 -1 0 1 -2 -1 -2 -2 -1 0 -0 1 -0
-4 -1 -6 -5 -4 1 -6 -2 -4 -2 -13 8 3 6 3 2 -0 4 5 1 1 3 4 2 3 4 1 -4 -1 2 4 3 -2 -1 -1 2 -0 -1 -2 -0 -1 -1 -1 -1 -2
1 -3 -2 -1 1 -1 -3 6 4 1 4 3 2 2 2 0 2 2 1 3 2 1 4 6 3 3 -1 -0 3 2 4 1 1 -0 -1 1 0 -3 -2 1 -0 -1 -0 0 -1
1 -1 -2 -1 0 2 3 -3 -2 5 3 4 4 4 4 1 3 -1 3 4 -1 1 2 4 3 1 -1 0 -4 -2 0 -1 0 -2 -1 -2 1 -1 -4 -1 0 0 0 0 1
1 1 1 1 4 5 4 2 4 3 5 4 2 1 5 4 2 -3 4 1 2 3 2 2 2 -1 -2 -0 -1 -1 -0 0 -0 -1 -2 -0 -2 1 -4 -4 -4 -1 -0 1 1
-1 -2 -2 -1 1 -2 -1 -3 -5 -1 -1 3 7 1 2 1 -3 -1 3 0 3 0 4 5 2 1 -1 -1 -0 -1 -2 -1 -1 -1 -2 -2 -3 -2 -0 -1 -3 -2 -1 0 -1
-2 -1 -1 -3 -4 -5 -2 5 -0 3 0 4 5 2 -1 2 -5 0 -1 -2 1 4 4 3 -2 0 -0 -0 -0 -1 -2 -2 -1 -2 -1 -3 -10 -2 -2 -1 1 -0 0 -0 -0
-1 0 3 1 2 -3 2 0 1 2 -1 -1 2 7 4 -1 -1 -1 -2 -1 0 4 2 3 2 1 0 -1 0 0 -1 -1 -2 -0 2 -0 -7 -5 -3 -1 0 -1 -1 -0 0
1 1 -1 2 -2 2 1 -4 -2 6 -4 -4 2 0 3 1 -2 -1 -4 1 1 -0 1 -2 1 1 1 -0 -1 -2 -1 -1 -1 -0 2 -5 3 -8 -3 -0 1 -0 -0 -0 -0
1 3 1 -1 -2 2 1 -0 -4 -1 -2 -2 3 -0 1 3 -2 -6 -1 4 3 2 1 2 1 0 -0 -0 -2 -1 -1 -2 -1 1 2 -2 1 -2 0 -1 -0 -0 0 1 -0
-1 2 3 1 2 -1 1 2 1 -3 -2 -0 -2 -0 -1 -3 -1 -1 -0 -0 -0 -1 1 1 0 0 0 -0 -1 1 -1 -1 -1 0 1 -1 -0 -4 -0 1 1 -1 -1 -0 -0
1 -1 1 2 2 2 0 -0 0 -2 -0 -1 -1 -2 -3 -1 2 1 0 -0 2 0 -2 0 1 -1 -1 -2 -1 -1 -2 0 -0 1 2 -1 -4 -2 1 1 -1 -2 -0 0 -1
-2 1 1 2 2 3 2 3 -1 -1 -1 -1 0 -0 -1 0 -2 -1 -1 1 -0 0 0 -1 -2 -2 -2 -1 0 -1 -1 -1 -0 -1 0 -2 -4 2 -0 -3 -3 -0 -1 -2 -2
-1 -2 -0 0 1 2 2 -3 -3 1 1 1 -0 0 1 -0 -1 -0 -1 -1 -0 -1 -1 -1 -2 -1 -1 0 -0 -1 0 -0 -1 1 -0 -1 -3 -3 -2 -2 -1 -2 -1 -1 1
-2 -2 -1 -1 -0 -1 -0 -2 0 2 -0 -1 -0 0 -0 -1 1 0 -0 -1 -1 -1 0 0 1 -1 1 -0 1 1 -1 -1 -2 -2 2 0 -2 1 0 0 -0 0 0 -1 -0
2 -3 -2 -0 -1 -2 -3 -6 -3 -0 -0 0 1 1 1 1 1 1 -0 -0 -0 -0 -1 0 0 1 -1 0 0 1 -0 2 3 0 0 -0 -12 1 1 -1 0 1 -1 -1 -2
1 1 0 -1 -2 -2 -2 -2 -1 -1 -2 -3 -3 -1 0 0 0 0 0 -0 -0 -1 1 1 1 0 0 -1 -1 -3 -3 -2 -0 -0 -5 4 -4 -3 -2 1 -2 -0 -1 0 -0
-3 -6 0 2 0 -1 -0 -1 -0 -1 -3 -2 -0 0 -2 -5 -4 -2 -2 -3 -3 -1 0 -0 -3 -4 -1 -1 -1 -2 -0 -1 1 -2 -4 -17 -11 0 9 1 4 1 2 -1 2
1 -2 -2 -5 -3 -2 1 2 2 0 0 1 -0 -2 -3 -2 1 -0 -1 0 1 1 -1 -3 -5 -3 0 1 0 3 1 2 -3 5 -4 -2 -2 25 8 -6 -1 0 -0 -1 -1
-6 -3 -1 -1 -4 -4 -5 -5 -8 -2 2 3 4 4 3 2 0 -1 -2 0 0 -1 -1 0 -0 -0 -5 -1 0 -5 0 7 0 0 -11 12 -28 3 0 4 1 0 -1 0 1
2 0 0 -3 -3 -4 0 3 3 -2 -4 -6 -8 -7 -6 -7 -5 0 2 4 3 -1 2 0 -0 0 -1 -0 0 -8 -2 -1 -1 -2 0 -3 0 -6 0 -2 -4 1 -2 -0 1
Height
3056 3053 3050 3047 3047 3047 3048 3052 3054 3058 3063 3068 3074 3081 3086 3090 3095 3102 3108 3116 3121 3127 3132 3137 3142 3147 3152 3155 3157 3160 3165 3166 3167 3169 3170 3172 3173 3175 3176 3176 3176 3176 3175 3174 3173
3055 3053 3050 3048 3045 3046 3048 3050 3052 3056 3061 3066 3073 3078 3083 3088 3093 3099 3106 3112 3119 3125 3130 3135 3140 3145 3150 3153 3156 3159 3162 3164 3166 3168 3169 3171 3172 3174 3175 3175 3175 3174 3173 3172 3171
3056 3054 3049 3046 3044 3044 3046 3048 3048 3056 3061 3065 3069 3069 3078 3085 3091 3097 3103 3109 3116 3123 3127 3132 3137 3143 3148 3151 3154 3157 3160 3163 3165 3167 3168 3170 3171 3172 3173 3173 3173 3171 3171 3170 3169
3058 3052 3046 3042 3042 3044 3047 3050 3051 3055 3060 3064 3065 3066 3075 3084 3093 3094 3101 3108 3115 3121 3125 3129 3136 3142 3146 3150 3153 3156 3158 3162 3164 3165 3167 3169 3170 3171 3171 3171 3170 3169 3168 3168 3167
3059 3052 3044 3041 3043 3047 3050 3052 3055 3058 3060 3063 3066 3065 3076 3084 3089 3093 3100 3107 3113 3119 3124 3129 3135 3141 3145 3148 3152 3155 3158 3161 3162 3164 3166 3167 3168 3169 3169 3168 3167 3166 3166 3165 3165
3062 3054 3046 3046 3047 3050 3054 3057 3058 3061 3064 3063 3060 3069 3078 3087 3089 3093 3100 3107 3113 3118 3123 3127 3135 3141 3145 3147 3151 3154 3157 3159 3161 3162 3163 3165 3166 3166 3166 3165 3164 3163 3163 3162 3161
3068 3063 3054 3054 3053 3054 3058 3060 3060 3059 3068 3068 3070 3076 3083 3088 3091 3095 3101 3107 3113 3118 3122 3128 3134 3141 3144 3147 3151 3153 3156 3157 3159 3160 3161 3162 3163 3163 3163 3162 3161 3160 3159 3159 3158
3074 3071 3066 3064 3062 3061 3062 3063 3065 3067 3070 3072 3078 3082 3086 3089 3093 3097 3102 3108 3114 3119 3122 3129 3135 3140 3143 3147 3150 3152 3155 3156 3157 3158 3159 3161 3160 3160 3159 3159 3158 3157 3156 3155 3154
3079 3077 3074 3072 3070 3069 3069 3068 3070 3074 3077 3080 3084 3087 3090 3092 3096 3100 3104 3110 3115 3119 3123 3130 3135 3139 3143 3147 3150 3151 3152 3154 3155 3155 3156 3158 3157 3156 3156 3155 3155 3154 3153 3151 3149
3084 3083 3081 3078 3076 3075 3075 3077 3078 3080 3082 3085 3089 3092 3092 3095 3099 3103 3108 3113 3116 3120 3125 3130 3135 3138 3142 3145 3149 3149 3150 3152 3153 3154 3153 3153 3154 3153 3152 3151 3151 3150 3148 3146 3144
3088 3086 3086 3085 3083 3082 3082 3082 3086 3088 3087 3088 3090 3091 3093 3097 3102 3107 3111 3115 3119 3122 3126 3131 3135 3137 3141 3144 3146 3148 3149 3151 3151 3151 3151 3150 3149 3151 3149 3147 3146 3144 3143 3141 3139
3092 3090 3089 3088 3086 3085 3084 3085 3086 3090 3090 3090 3093 3095 3098 3101 3106 3111 3114 3118 3120 3123 3128 3133 3134 3137 3140 3143 3145 3147 3148 3150 3150 3149 3148 3146 3145 3145 3144 3142 3141 3140 3138 3136 3135
3097 3095 3094 3093 3093 3091 3089 3090 3090 3091 3093 3097 3098 3100 3103 3107 3110 3113 3117 3120 3122 3126 3129 3131 3134 3136 3139 3142 3144 3145 3146 3148 3148 3147 3145 3142 3139 3138 3138 3137 3134 3133 3132 3132 3131
3102 3100 3098 3098 3099 3098 3096 3096 3095 3095 3099 3104 3103 3106 3108 3110 3114 3117 3119 3123 3125 3128 3130 3133 3133 3136 3138 3140 3143 3143 3144 3145 3145 3145 3144 3142 3138 3133 3132 3130 3129 3128 3129 3128 3128
3103 3102 3102 3101 3100 3100 3101 3100 3100 3099 3101 3108 3106 3108 3109 3113 3116 3119 3122 3124 3126 3128 3131 3132 3133 3135 3137 3139 3140 3142 3142 3142 3142 3142 3140 3138 3137 3129 3127 3126 3125 3124 3125 3125 3125
3104 3102 3102 3102 3102 3101 3100 3100 3102 3103 3105 3109 3108 3110 3113 3114 3117 3120 3123 3126 3127 3129 3130 3131 3132 3135 3136 3137 3139 3140 3140 3140 3139 3138 3138 3134 3135 3125 3124 3124 3122 3122 3122 3122 3122
3104 3103 3102 3101 3101 3101 3100 3100 3103 3100 3109 3111 3111 3113 3114 3117 3120 3122 3124 3125 3127 3130 3130 3131 3132 3134 3135 3137 3138 3139 3139 3140 3138 3137 3133 3131 3131 3124 3122 3121 3120 3120 3120 3119 3120
3106 3103 3102 3100 3099 3099 3100 3101 3101 3105 3105 3109 3112 3114 3117 3119 3121 3123 3124 3126 3126 3127 3128 3130 3133 3132 3133 3135 3137 3137 3139 3140 3138 3133 3132 3130 3125 3119 3119 3118 3117 3117 3116 3117 3117
3107 3105 3103 3101 3100 3099 3100 3100 3102 3104 3108 3111 3114 3116 3118 3119 3121 3123 3124 3125 3125 3126 3129 3128 3130 3131 3132 3133 3135 3135 3136 3137 3136 3133 3133 3125 3120 3118 3115 3115 3115 3114 3114 3114 3115
3109 3107 3105 3103 3102 3101 3101 3101 3104 3106 3109 3113 3114 3116 3117 3119 3121 3121 3123 3124 3125 3126 3126 3127 3129 3129 3129 3131 3131 3132 3134 3134 3134 3132 3127 3120 3117 3114 3114 3114 3113 3112 3112 3112 3112
3111 3109 3107 3106 3104 3103 3103 3104 3107 3110 3112 3114 3115 3116 3117 3118 3119 3120 3121 3123 3123 3123 3124 3125 3127 3128 3128 3127 3127 3129 3128 3130 3130 3129 3125 3120 3114 3113 3113 3112 3112 3111 3111 3111 3110
3112 3110 3109 3108 3109 3106 3107 3108 3109 3111 3113 3114 3115 3116 3118 3119 3119 3120 3120 3121 3121 3122 3122 3123 3124 3124 3124 3124 3124 3124 3125 3127 3128 3126 3123 3122 3111 3111 3110 3110 3110 3109 3108 3107 3106
3115 3111 3110 3109 3109 3109 3110 3112 3114 3115 3115 3116 3115 3116 3117 3118 3120 3119 3119 3119 3120 3120 3120 3121 3121 3122 3121 3123 3121 3121 3122 3124 3124 3124 3121 3122 3113 3110 3110 3108 3107 3105 3102 3101 3100
3118 3115 3113 3111 3110 3111 3112 3113 3114 3115 3115 3116 3116 3117 3117 3117 3118 3118 3118 3119 3118 3119 3119 3119 3119 3120 3120 3119 3120 3120 3119 3120 3120 3118 3114 3107 3106 3107 3107 3103 3100 3096 3094 3092 3091
3119 3117 3116 3115 3113 3112 3112 3114 3114 3114 3115 3115 3115 3115 3116 3116 3116 3116 3116 3116 3117 3116 3116 3117 3116 3116 3116 3116 3114 3113 3113 3113 3110 3110 3108 3102 3101 3101 3099 3095 3093 3089 3087 3086 3085
3121 3119 3117 3116 3115 3114 3114 3113 3113 3113 3113 3114 3114 3114 3114 3114 3115 3114 3114 3114 3114 3114 3113 3113 3112 3111 3110 3110 3108 3105 3104 3104 3102 3100 3097 3096 3093 3094 3093 3090 3088 3086 3084 3081 3079
3119 3118 3117 3117 3115 3115 3115 3114 3113 3113 3113 3112 3112 3112 3112 3112 3111 3111 3111 3111 3111 3111 3110 3109 3108 3107 3104 3103 3102 3097 3092 3092 3091 3090 3092 3090 3090 3088 3087 3084 3082 3080 3077 3076 3074